sat.trackr.live / text

‹ back to catalog

STARLINK-5786

NORAD 56032 · 2023-042AY

PAYLOAD ACTIVE UNKNOWN

§ Identity

Operator
Country
US
Launch date
2023-03-24
Launch site
AFETR
Launch vehicle
Mass (kg)
RCS (m²)

Purposes: comms

External: N2YO · Heavens-Above · Gunter

§ Orbital elements

Epoch: 2026-05-24T22:18:00.881568Z

Period
94.27 min
Inclination
43.0044°
Eccentricity
0.0001597
Mean motion
15.27576022 rev/d
Perigee alt
482.0 km
Apogee alt
484.2 km
Semi-major
6,861.2 km
B*
1.7819e-5
RAAN
334.8055°
Arg perigee
268.0510°
Mean anomaly
92.0159°
Rev number
17,469

§ Raw data

STARLINK-57861 56032U 23042AY  26144.92917687  .00000228  00000+0  17819-4 0  99942 56032  43.0044 334.8055 0001597 268.0510  92.0159 15.27576022174695

JSON: /api/v1/satellites/56032 · /tle

For live sub-satellite position, see the globe view (requires WebGL).

§ Visibility from observer

Set your observer location to see the next 7 days of passes ≥ 10°. The values pass through the URL so the page stays shareable.

No JS? Fill the form by hand. The geolocation button needs JavaScript.